TJS-3 AKM, 43917

Orbit data source: Space-Track

TJS-3 AKM, 43917 is space debris in GEO originally from a launch on Mon, 24 Dec 2018 UTC via a CHANG ZHENG 3C launch vehicle from the Xichang Space Center, China (XSC). Debris objects in space refer to the collection of defunct objects orbiting the Earth. Examples of debris include non-operational satellites, rocket bodies, and fragments generated from explosions, collisions, or faulty payload assembly.

Loading next visibility...
Identifier
43917, 2018-110C
Orbit
GEO
Country
Flag of CNCN / PRC
Related business
Manufacturer
CAST
Mission
Non-operational Defense Technology
Bus & Motor
Unknown
Mass
~500 kg wet, ~500 kg dry
Launch date (UTC)
2018-12-24 (7 years ago)
Launch vehicle
CHANG ZHENG 3C
Launch site
Xichang Space Center, China (XSC)
Object type
Payload
Rocket body
Debris
Shape & HBR
Box, 0.5 m
Radar Cross Section
1.500 m², Large (>1 m²)

Expand to show TLE details & history
Last TLE update: 10 hours ago

TLE from 10 hours ago
0 TJS-3 AKM
1 43917U 18110C   25261.30669721 -.00000125  00000-0  00000-0 0  9994
2 43917   3.9619  82.1615 0006575 114.3145 110.4207  0.98355959 24362
Epoch: 2025-09-18T07:21Z
TLE epoch observation values (Epoch: 2025-09-18T07:21:38.638Z)
Latitude
-2.7769°
Longitude
-160.98573°
Altitude
36,342.228 km
Speed
3.054 km/s
True Right ascension
20h 27m 34s
True Declination
-2° 46' 27"
Sunlit
Object was in daylight at epoch
Visualization orbit readout
Latitude
Unknown
Longitude
Unknown
Altitude
Unknown
Speed
Unknown
Apparent Right ascension
Unknown
Apparent Declination
Unknown
Sunlit
N/A
Visualization observer readout
Local Sidereal Time
10:42:15
Azimuth
Unknown
Elevation
Unknown
Doppler factor
Unknown
Orbital elements
Apogee altitude
36,361.502 km
Perigee altitude
36,305.337 km
Semi-major axis
42,711.557 km
Eccentricity
0.00066
Inclination
3.9619°
RAAN
82.1615°
Arg. of periapsis
114.3145°
True anomaly
110.49129°
Mean anomaly
110.4207°
Eccentric anomaly
110.456°
Mean motion
0.24588 °/min
Orbital period
1,464.12 mins
BSTAR
0
Loading maneuver chart data...
Computing Atmospheric mass density...
Loading historical data...
Loading historical data...
Loading historical data...
Loading historical data...
Loading historical data...
Loading historical data...
Loading historical data...
Other satellites on launch #110 in the year 2018 (2018-12-24 UTC)

Documentation

Showing up to 5 results
|